Weather History for Newport, RI

Change the Weather History Date:

Saturday, October 19, 2013

  Actual Average Record
Temperature  
Mean Temperature 54 °F -  
Max Temperature 63 °F 60 °F 72 °F (1963)
Min Temperature 45 °F 45 °F 32 °F (1974)
Degree Days  
Heating Degree Days 11    
Growing Degree Days 4 (Base 50)    
Moisture  
Dew Point 45 °F    
Average Humidity 67    
Maximum Humidity 87    
Minimum Humidity 49    
Precipitation  
Precipitation 0.00 in - - ()
Sea Level Pressure  
Sea Level Pressure 29.91 in    
Wind  
Wind Speed 6 mph (South)    
Max Wind Speed 13 mph    
Max Gust Speed 22 mph    
Visibility 10 miles    
Events Rain    
Averages and records for this station are not official NWS values.
T = Trace of Precipitation, MM = Missing Value Source: NWS Daily Summary

Daily Weather History Graph

Daily Weather History Graph

Search for Another Location

Airport:

Trip Planner

Search our weather history database for the weather conditions in past years. The results will help you decide how hot, cold, wet, or windy it might be!

Date:

Astronomy

Oct. 19, 2013 Rise Set
Actual Time 7:01 AM EDT 5:57 PM EDT
Civil Twilight 6:33 AM EDT 6:25 PM EDT
Nautical Twilight 6:01 AM EDT 6:57 PM EDT
Astronomical Twilight 5:29 AM EDT 7:29 PM EDT
Moon 6:22 PM EDT (10/19) 7:37 AM EDT (10/19)
Length of Visible Light 11h 51m
Length of Day
10h 55m
Waxing Gibbous, 99% of the Moon is Illuminated
Oct 19
Waxing Gibbous
Oct 26
Last Quarter
Nov 3
New
Nov 10
First Quarter
Nov 17
Full

Hourly Weather History & Observations

Time (EDT) Temp. Dew Point Humidity Pressure Visibility Wind Dir Wind Speed Gust Speed Precip Events Conditions
12:53 AM 57.0 °F 39.9 °F 53% 29.94 in 10.0 mi NW 12.7 mph 21.9 mph N/A   Clear
1:53 AM 55.0 °F 39.9 °F 57% 29.95 in 10.0 mi NW 8.1 mph - N/A   Clear
2:53 AM 52.0 °F 41.0 °F 66% 29.96 in 10.0 mi WNW 3.5 mph - N/A   Clear
3:53 AM 50.0 °F 41.0 °F 71% 29.96 in 10.0 mi West 3.5 mph - N/A   Clear
4:53 AM 51.1 °F 39.9 °F 66% 29.97 in 10.0 mi Calm Calm - N/A   Clear
5:53 AM 48.9 °F 41.0 °F 74% 29.98 in 10.0 mi Calm Calm - N/A   Clear
6:53 AM 45.0 °F 41.0 °F 86% 29.97 in 10.0 mi Calm Calm - N/A   Clear
7:53 AM 46.0 °F 42.1 °F 86% 29.97 in 10.0 mi Calm Calm - N/A   Clear
8:53 AM 52.0 °F 48.0 °F 86% 29.99 in 10.0 mi Calm Calm - N/A   Clear
9:53 AM 60.1 °F 42.1 °F 51% 29.99 in 10.0 mi West 3.5 mph - N/A   Clear
10:53 AM 60.1 °F 41.0 °F 49% 29.98 in 10.0 mi SSW 5.8 mph - N/A   Clear
11:53 AM 60.1 °F 45.0 °F 57% 29.97 in 10.0 mi South 6.9 mph - N/A   Clear
12:53 PM 61.0 °F 46.9 °F 60% 29.94 in 10.0 mi South 9.2 mph - N/A   Clear
1:53 PM 63.0 °F 46.9 °F 56% 29.93 in 10.0 mi South 10.4 mph - N/A   Clear
2:53 PM 61.0 °F 45.0 °F 56% 29.91 in 10.0 mi South 11.5 mph - N/A   Clear
3:53 PM 60.1 °F 46.0 °F 60% 29.90 in 10.0 mi South 8.1 mph - N/A   Clear
4:53 PM 59.0 °F 46.0 °F 62% 29.87 in 10.0 mi SSE 3.5 mph - N/A   Clear
5:53 PM 57.9 °F 46.9 °F 67% 29.85 in 10.0 mi SSE 4.6 mph - N/A   Scattered Clouds
6:53 PM 57.9 °F 45.0 °F 62% 29.83 in 10.0 mi SE 4.6 mph - N/A   Overcast
7:53 PM 57.9 °F 46.0 °F 65% 29.82 in 10.0 mi SE 5.8 mph - N/A   Overcast
8:53 PM 57.9 °F 46.0 °F 65% 29.83 in 10.0 mi Calm Calm - N/A   Overcast
9:07 PM 57.2 °F 46.4 °F 67% 29.83 in 10.0 mi Calm Calm - N/A   Overcast
9:53 PM 57.0 °F 50.0 °F 77% 29.80 in 10.0 mi SE 9.2 mph - 0.00 in Rain Light Rain
10:53 PM 57.9 °F 54.0 °F 87% 29.78 in 10.0 mi SSE 9.2 mph - 0.00 in   Mostly Cloudy
11:53 PM 57.9 °F 53.1 °F 84% 29.76 in 10.0 mi SSW 5.8 mph - N/A   Mostly Cloudy